When you browse on this site, cookies collect data to enhance your experience and personalize the content and advertising you see.
Visit our Privacy Policy to learn more. By continuing to use the site, you agree to this use of cookies and data.
  • en France
  • Liste des pays
  • À 7 jours
  • Température de l'eau
  • Carte météo
  • Widgets météo
  • user-avatar
    Se connecter

    Météo par heure à Whitehorse

    Ce jour, 5 Avril, Dimanche

    Heure Température Précipitation Vent Pression Humidité
    00:00 -8°C° 0 mm 1 m/s 682 mmHg 82%
    01:00 -9°C° 0 mm 1 m/s 682 mmHg 82%
    02:00 -9°C° 0 mm 1 m/s 681 mmHg 81%
    03:00 -9°C° 0 mm 1 m/s 681 mmHg 80%
    04:00 -9°C° 0 mm 1 m/s 680 mmHg 80%
    05:00 -9°C° 0 mm 1 m/s 680 mmHg 80%
    06:00 -9°C° 0 mm 1 m/s 680 mmHg 80%
    07:00 -7°C° 0 mm 1 m/s 679 mmHg 80%
    08:00 -6°C° 0 mm 2 m/s 679 mmHg 79%
    09:00 -5°C° 0 mm 2 m/s 678 mmHg 78%
    10:00 -4°C° 0 mm 2 m/s 678 mmHg 78%
    11:00 -3°C° 0 mm 2 m/s 677 mmHg 77%
    12:00 -2°C° 0 mm 2 m/s 677 mmHg 76%
    13:00 -1°C° 0 mm 2 m/s 676 mmHg 76%
    14:00 -1°C° 0 mm 3 m/s 675 mmHg 77%
    15:00 -1°C° 0 mm 3 m/s 675 mmHg 77%
    16:00 -2°C° 0 mm 3 m/s 674 mmHg 80%
    17:00 -3°C° 0 mm 2 m/s 674 mmHg 83%
    18:00 -4°C° 0 mm 2 m/s 674 mmHg 86%
    19:00 -6°C° 0 mm 2 m/s 673 mmHg 87%
    20:00 -8°C° 0 mm 2 m/s 672 mmHg 89%
    21:00 -10°C° 0 mm 2 m/s 672 mmHg 90%
    22:00 -10°C° 0.1 mm 2 m/s 671 mmHg 90%
    23:00 -10°C° 0.1 mm 2 m/s 671 mmHg 91%

    Demain, 6 Avril, Lundi

    Heure Température Précipitation Vent Pression Humidité
    00:00 -10°C° 0.1 mm 2 m/s 671 mmHg 92%
    01:00 -10°C° 0.2 mm 2 m/s 671 mmHg 92%
    02:00 -10°C° 0.2 mm 2 m/s 670 mmHg 92%
    03:00 -8°C° 0.2 mm 1 m/s 670 mmHg 91%
    04:00 -8°C° 0.2 mm 1 m/s 670 mmHg 92%
    05:00 -8°C° 0.2 mm 1 m/s 670 mmHg 92%
    06:00 -8°C° 0.2 mm 1 m/s 670 mmHg 92%
    07:00 -7°C° 0.1 mm 1 m/s 670 mmHg 90%
    08:00 -6°C° 0.1 mm 1 m/s 670 mmHg 87%
    09:00 -3°C° 0.1 mm 1 m/s 670 mmHg 84%
    10:00 -5°C° 0.1 mm 2 m/s 671 mmHg 81%
    11:00 -5°C° 0.1 mm 3 m/s 671 mmHg 78%
    12:00 -5°C° 0.1 mm 3 m/s 672 mmHg 75%
    13:00 -5°C° 0.2 mm 4 m/s 672 mmHg 73%
    14:00 -5°C° 0.2 mm 4 m/s 673 mmHg 72%
    15:00 -7°C° 0.2 mm 4 m/s 673 mmHg 71%
    16:00 -8°C° 0.3 mm 4 m/s 674 mmHg 77%
    17:00 -8°C° 0.3 mm 3 m/s 675 mmHg 83%
    18:00 -9°C° 0.3 mm 3 m/s 676 mmHg 89%
    19:00 -10°C° 0.1 mm 3 m/s 677 mmHg 89%
    20:00 -10°C° 0.1 mm 2 m/s 678 mmHg 89%
    21:00 -12°C° 0.1 mm 2 m/s 679 mmHg 89%
    22:00 -13°C° 0 mm 2 m/s 680 mmHg 88%
    23:00 -12°C° 0 mm 1 m/s 681 mmHg 86%

    Après-demain, 7 Avril, Mardi

    Heure Température Précipitation Vent Pression Humidité
    00:00 -13°C° 0 mm 1 m/s 681 mmHg 85%
    01:00 -13°C° 0 mm 1 m/s 682 mmHg 84%
    02:00 -14°C° 0 mm 1 m/s 683 mmHg 84%
    03:00 -15°C° 0 mm 1 m/s 683 mmHg 83%
    04:00 -14°C° 0 mm 1 m/s 684 mmHg 83%
    05:00 -14°C° 0 mm 1 m/s 684 mmHg 83%
    06:00 -14°C° 0 mm 1 m/s 685 mmHg 83%
    07:00 -12°C° 0 mm 1 m/s 685 mmHg 80%
    08:00 -10°C° 0 mm 1 m/s 685 mmHg 77%
    09:00 -8°C° 0 mm 1 m/s 685 mmHg 75%
    10:00 -8°C° 0 mm 2 m/s 685 mmHg 73%
    11:00 -7°C° 0 mm 2 m/s 685 mmHg 71%
    12:00 -6°C° 0 mm 2 m/s 686 mmHg 69%
    13:00 -5°C° 0 mm 2 m/s 685 mmHg 65%
    14:00 -6°C° 0 mm 3 m/s 685 mmHg 62%
    15:00 -5°C° 0 mm 3 m/s 685 mmHg 59%
    16:00 -5°C° 0 mm 2 m/s 685 mmHg 64%
    17:00 -6°C° 0 mm 2 m/s 685 mmHg 70%
    18:00 -7°C° 0 mm 2 m/s 685 mmHg 76%
    19:00 -9°C° 0 mm 2 m/s 685 mmHg 78%
    20:00 -10°C° 0 mm 2 m/s 685 mmHg 80%
    21:00 -12°C° 0 mm 2 m/s 685 mmHg 82%
    22:00 -12°C° 0 mm 2 m/s 685 mmHg 83%
    23:00 -13°C° 0 mm 2 m/s 685 mmHg 84%

    8 Avril, Mercredi

    Heure Température Précipitation Vent Pression Humidité
    00:00 -11°C° 0 mm 1 m/s 685 mmHg 85%
    01:00 -11°C° 0 mm 1 m/s 684 mmHg 88%
    02:00 -11°C° 0 mm 1 m/s 683 mmHg 90%
    03:00 -11°C° 0 mm 1 m/s 682 mmHg 93%
    04:00 -10°C° 0.1 mm 1 m/s 682 mmHg 94%
    05:00 -10°C° 0.1 mm 1 m/s 681 mmHg 94%
    06:00 -10°C° 0.1 mm 1 m/s 680 mmHg 95%
    07:00 -9°C° 0.2 mm 1 m/s 679 mmHg 93%
    08:00 -8°C° 0.2 mm 1 m/s 678 mmHg 91%
    09:00 -6°C° 0.2 mm 1 m/s 678 mmHg 89%
    10:00 -6°C° 0.2 mm 1 m/s 677 mmHg 87%
    11:00 -4°C° 0.2 mm 1 m/s 677 mmHg 85%
    12:00 -3°C° 0.2 mm 1 m/s 677 mmHg 83%
    13:00 -2°C° 0.2 mm 1 m/s 677 mmHg 83%
    14:00 -2°C° 0.2 mm 1 m/s 677 mmHg 83%
    15:00 -2°C° 0.2 mm 1 m/s 677 mmHg 83%
    16:00 -2°C° 0.2 mm 1 m/s 677 mmHg 86%
    17:00 -5°C° 0.2 mm 2 m/s 678 mmHg 89%
    18:00 -6°C° 0.2 mm 2 m/s 678 mmHg 93%
    19:00 -7°C° 0.1 mm 2 m/s 679 mmHg 93%
    20:00 -8°C° 0.1 mm 2 m/s 680 mmHg 93%
    21:00 -9°C° 0.1 mm 2 m/s 681 mmHg 93%
    22:00 -10°C° 0 mm 2 m/s 682 mmHg 92%
    23:00 -10°C° 0 mm 1 m/s 683 mmHg 91%

    9 Avril, Jeudi

    Heure Température Précipitation Vent Pression Humidité
    00:00 -11°C° 0 mm 1 m/s 684 mmHg 89%
    01:00 -11°C° 0 mm 1 m/s 685 mmHg 89%
    02:00 -11°C° 0 mm 1 m/s 686 mmHg 89%
    03:00 -11°C° 0 mm 1 m/s 686 mmHg 89%
    04:00 -11°C° 0 mm 1 m/s 687 mmHg 89%
    05:00 -11°C° 0 mm 1 m/s 688 mmHg 89%
    06:00 -11°C° 0 mm 1 m/s 689 mmHg 89%
    07:00 -9°C° 0 mm 1 m/s 689 mmHg 83%
    08:00 -8°C° 0 mm 1 m/s 690 mmHg 77%
    09:00 -6°C° 0 mm 1 m/s 690 mmHg 72%
    10:00 -4°C° 0 mm 1 m/s 690 mmHg 70%
    11:00 -4°C° 0 mm 1 m/s 691 mmHg 68%
    12:00 -3°C° 0 mm 1 m/s 691 mmHg 65%
    13:00 -3°C° 0 mm 1 m/s 691 mmHg 66%
    14:00 -3°C° 0 mm 1 m/s 691 mmHg 68%
    15:00 -3°C° 0 mm 1 m/s 691 mmHg 69%
    16:00 -3°C° 0 mm 1 m/s 691 mmHg 73%
    17:00 -4°C° 0 mm 1 m/s 691 mmHg 78%
    18:00 -6°C° 0 mm 1 m/s 691 mmHg 82%
    19:00 -7°C° 0 mm 1 m/s 691 mmHg 84%
    20:00 -9°C° 0 mm 1 m/s 691 mmHg 86%
    21:00 -11°C° 0 mm 1 m/s 691 mmHg 88%
    22:00 -12°C° 0 mm 1 m/s 692 mmHg 88%
    23:00 -12°C° 0 mm 1 m/s 692 mmHg 88%

    10 Avril, Vendredi

    Heure Température Précipitation Vent Pression Humidité
    00:00 -13°C° 0 mm 1 m/s 692 mmHg 89%
    01:00 -13°C° 0 mm 1 m/s 692 mmHg 89%
    02:00 -13°C° 0 mm 1 m/s 692 mmHg 90%
    03:00 -14°C° 0 mm 1 m/s 692 mmHg 91%
    04:00 -14°C° 0 mm 1 m/s 693 mmHg 91%
    05:00 -14°C° 0 mm 1 m/s 693 mmHg 92%
    06:00 -14°C° 0 mm 1 m/s 693 mmHg 92%
    07:00 -12°C° 0 mm 1 m/s 693 mmHg 89%
    08:00 -10°C° 0 mm 1 m/s 694 mmHg 87%
    09:00 -8°C° 0 mm 1 m/s 694 mmHg 84%
    10:00 -8°C° 0 mm 2 m/s 694 mmHg 80%
    11:00 -7°C° 0 mm 2 m/s 694 mmHg 76%
    12:00 -6°C° 0 mm 2 m/s 694 mmHg 72%
    13:00 -6°C° 0 mm 2 m/s 694 mmHg 71%
    14:00 -5°C° 0 mm 2 m/s 695 mmHg 69%
    15:00 -5°C° 0 mm 2 m/s 695 mmHg 68%
    16:00 -5°C° 0 mm 2 m/s 695 mmHg 72%
    17:00 -4°C° 0 mm 1 m/s 695 mmHg 77%
    18:00 -6°C° 0 mm 1 m/s 695 mmHg 82%
    19:00 -7°C° 0 mm 1 m/s 695 mmHg 83%
    20:00 -9°C° 0 mm 1 m/s 696 mmHg 84%
    21:00 -11°C° 0 mm 1 m/s 696 mmHg 85%
    22:00 -11°C° 0 mm 1 m/s 696 mmHg 84%
    23:00 -12°C° 0 mm 1 m/s 696 mmHg 83%
    Voir plus